KUIPER-00079

导读

KUIPER-00079是美国亚马逊“柯伊伯计划”卫星互联网星座中的一颗卫星,于2025年7月16日由SpaceX在卡纳维拉尔角太空军基地发射升空,此次任务共发射24颗柯伊伯卫星。 该卫星旨在近地轨道提供全球互联网服务,挑战SpaceX星链的市场主导地位,亚马逊计划在第一代星座共部署超3200颗卫星,KUIPER-00079是该项目组网进程中的组成部分。

基本信息
目录编号:
64826
目录名称:
KUIPER-00079
国际标识:
2025-151L
轨道中心:
EARTH
卫星名称:
KUIPER-00079
卫星全名:
KUIPER-00079
卫星状态:
在轨 (已飞行423 天)
发射日期:
2025-07-16 UTC
国别 :
美国 (US)
星等 :
--
该卫星已列入 空间交会检测服务 Space Conjunction Data Service (SCDS) ,当前飞行风险评估等级: 无高风险
轨道信息
数据来源 国际轨道数据 AOE轨道数据
星历时间 2026-09-11T12:43:40+0800
21小时前
查看轨道信息
2026-09-09T22:00:00+0800
2天前
查看轨道信息
半长轴 7007.67km 7007.69km
偏心率 0.0000953 0.0000718
轨道倾角 51.899° 51.899°
近地点辐角 56.048° 50.069°
升交点赤经 200.235° 207.373°
平近点角 304.057° 347.673°
近地点 628.865km 629.049km
远地点 630.201km 630.057km
周期 97.302分钟 97.302分钟
每日圈数 14.79934 14.799278
详细信息
使用方式:
暂无
2D轨道图
3D轨道图
轨道高度分析图
轨道倾角分析图
轨道综合分析图
查看轨道综合分析图
与全量物体交会距离演化趋势
与全量物体交会风险概率演化趋势